| time (UTC) | temp F | wind direction | speed MPH | gust MPH | rain 1hr in | rain 24hr in | rain mn in | humidity % | barometer mb |
| 20260507003039 | 53 | 235 | 6.0 | 14.0 | 0.00 | 0.21 | 0.21 | 99 | 1008.8 |
| 20260507001547 | 53 | 192 | 5.0 | 11.0 | 0.01 | 0.21 | 0.21 | 99 | 1008.8 |
| 20260507000038 | 52 | 234 | 3.0 | 12.0 | 0.01 | 0.21 | 0.21 | 99 | 1008.8 |
| 20260506234537 | 52 | 256 | 5.0 | 17.0 | 0.01 | 0.21 | 0.21 | 98 | 1008.7 |
| 20260506233037 | 53 | 213 | 3.0 | 12.0 | 0.03 | 0.21 | 0.21 | 98 | 1008.6 |
| 20260506231542 | 53 | 193 | 5.0 | 15.0 | 0.06 | 0.20 | 0.20 | 98 | 1008.5 |
| 20260506230041 | 53 | 213 | 7.0 | 15.0 | 0.09 | 0.20 | 0.20 | 98 | 1008.4 |
| 20260506224539 | 54 | 200 | 6.0 | 15.0 | 0.12 | 0.20 | 0.20 | 98 | 1008.4 |
| 20260506223108 | 54 | 195 | 6.0 | 19.0 | 0.11 | 0.18 | 0.18 | 98 | 1008.5 |
| 20260506221538 | 53 | 191 | 7.0 | 19.0 | 0.09 | 0.14 | 0.14 | 98 | 1008.7 |
| 20260506220040 | 53 | 216 | 7.0 | 14.0 | 0.06 | 0.11 | 0.11 | 97 | 1009.0 |
| 20260506214550 | 53 | 182 | 5.0 | 14.0 | 0.04 | 0.08 | 0.08 | 97 | 1009.2 |
| 20260506213040 | 53 | 183 | 5.0 | 15.0 | 0.04 | 0.07 | 0.07 | 96 | 1009.1 |
| 20260506211547 | 54 | 221 | 6.0 | 14.0 | 0.03 | 0.05 | 0.05 | 96 | 1009.2 |
| 20260506210037 | 54 | 178 | 6.0 | 12.0 | 0.03 | 0.05 | 0.05 | 96 | 1009.3 |
| 20260506204543 | 54 | 200 | 7.0 | 17.0 | 0.03 | 0.04 | 0.04 | 95 | 1009.4 |
| 20260506203045 | 55 | 204 | 7.0 | 13.0 | 0.03 | 0.03 | 0.03 | 95 | 1009.5 |
| 20260506201545 | 55 | 194 | 6.0 | 15.0 | 0.02 | 0.02 | 0.02 | 94 | 1009.5 |
| 20260506200047 | 55 | 190 | 5.0 | 21.0 | 0.02 | 0.02 | 0.02 | 95 | 1009.7 |
| 20260506194542 | 55 | 128 | 6.0 | 14.0 | 0.01 | 0.01 | 0.01 | 93 | 1009.8 |
| 20260506193039 | 55 | 183 | 7.0 | 15.0 | 0.00 | 0.00 | 0.00 | 91 | 1010.1 |
| 20260506191538 | 56 | 172 | 8.0 | 19.0 | 0.00 | 0.00 | 0.00 | 88 | 1010.3 |
| 20260506190044 | 56 | 196 | 6.0 | 14.0 | 0.00 | 0.00 | 0.00 | 88 | 1010.4 |
| 20260506184542 | 57 | 227 | 5.0 | 19.0 | 0.00 | 0.00 | 0.00 | 87 | 1010.6 |
| 20260506183039 | 57 | 198 | 8.0 | 22.0 | 0.00 | 0.00 | 0.00 | 87 | 1010.6 |
| 20260506181539 | 58 | 205 | 8.0 | 19.0 | 0.00 | 0.00 | 0.00 | 86 | 1010.7 |
| 20260506180046 | 58 | 183 | 8.0 | 17.0 | 0.00 | 0.00 | 0.00 | 86 | 1011.1 |
| 20260506174537 | 58 | 218 | 6.0 | 16.0 | 0.00 | 0.00 | 0.00 | 87 | 1011.4 |
| 20260506173041 | 57 | 237 | 6.0 | 21.0 | 0.00 | 0.00 | 0.00 | 86 | 1011.7 |
| 20260506171545 | 58 | 190 | 9.0 | 22.0 | 0.00 | 0.00 | 0.00 | 84 | 1011.6 |
| 20260506170041 | 59 | 203 | 7.0 | 19.0 | 0.00 | 0.00 | 0.00 | 84 | 1011.6 |
| 20260506164538 | 60 | 240 | 8.0 | 15.0 | 0.00 | 0.00 | 0.00 | 83 | 1011.9 |
| 20260506163039 | 58 | 236 | 7.0 | 15.0 | 0.00 | 0.00 | 0.00 | 85 | 1012.0 |
| 20260506161537 | 58 | 246 | 9.0 | 19.0 | 0.00 | 0.00 | 0.00 | 86 | 1012.3 |
| 20260506160038 | 58 | 200 | 6.0 | 16.0 | 0.00 | 0.00 | 0.00 | 85 | 1012.5 |
| 20260506154542 | 61 | 234 | 5.0 | 12.0 | 0.00 | 0.00 | 0.00 | 82 | 1012.8 |
| 20260506153038 | 61 | 213 | 5.0 | 15.0 | 0.00 | 0.00 | 0.00 | 83 | 1012.9 |
| 20260506151538 | 61 | 206 | 6.0 | 14.0 | 0.00 | 0.00 | 0.00 | 83 | 1012.8 |
| 20260506150038 | 60 | 186 | 5.0 | 14.0 | 0.00 | 0.00 | 0.00 | 84 | 1013.2 |
| 20260506144551 | 59 | 111 | 5.0 | 12.0 | 0.00 | 0.00 | 0.00 | 86 | 1012.8 |
| 20260506143044 | 58 | 202 | 6.0 | 15.0 | 0.00 | 0.00 | 0.00 | 87 | 1013.0 |
| 20260506141538 | 58 | 181 | 7.0 | 13.0 | 0.00 | 0.00 | 0.00 | 86 | 1012.8 |
| 20260506140038 | 58 | 225 | 6.0 | 19.0 | 0.00 | 0.00 | 0.00 | 87 | 1012.5 |
| 20260506134545 | 57 | 182 | 7.0 | 23.0 | 0.00 | 0.00 | 0.00 | 87 | 1012.8 |
| 20260506133042 | 57 | 244 | 8.0 | 20.0 | 0.00 | 0.00 | 0.00 | 88 | 1013.1 |
| 20260506131544 | 57 | 188 | 5.0 | 16.0 | 0.00 | 0.00 | 0.00 | 88 | 1013.0 |
| 20260506130044 | 57 | 232 | 6.0 | 15.0 | 0.00 | 0.00 | 0.00 | 87 | 1013.0 |
| 20260506124540 | 57 | 191 | 5.0 | 13.0 | 0.00 | 0.00 | 0.00 | 88 | 1013.0 |
| 20260506123039 | 57 | 207 | 5.0 | 11.0 | 0.00 | 0.00 | 0.00 | 89 | 1012.9 |
| 20260506121538 | 56 | 181 | 3.0 | 9.0 | 0.00 | 0.00 | 0.00 | 90 | 1013.0 |
| 20260506120038 | 56 | 229 | 4.0 | 9.0 | 0.00 | 0.00 | 0.00 | 92 | 1012.9 |
| 20260506114539 | 55 | 227 | 4.0 | 10.0 | 0.00 | 0.00 | 0.00 | 93 | 1013.1 |
| 20260506113038 | 54 | 196 | 4.0 | 8.0 | 0.00 | 0.00 | 0.00 | 94 | 1013.2 |
| 20260506111537 | 54 | 192 | 3.0 | 9.0 | 0.00 | 0.00 | 0.00 | 94 | 1013.2 |
| 20260506110039 | 54 | 194 | 5.0 | 13.0 | 0.00 | 0.00 | 0.00 | 94 | 1013.1 |
| 20260506104537 | 54 | 142 | 7.0 | 12.0 | 0.00 | 0.00 | 0.00 | 95 | 1012.9 |
| 20260506103038 | 53 | 203 | 4.0 | 13.0 | 0.00 | 0.00 | 0.00 | 95 | 1012.9 |
| 20260506101541 | 53 | 255 | 5.0 | 11.0 | 0.00 | 0.00 | 0.00 | 95 | 1013.0 |
| 20260506100038 | 53 | 188 | 4.0 | 12.0 | 0.00 | 0.00 | 0.00 | 96 | 1012.9 |
| 20260506094538 | 53 | 216 | 6.0 | 14.0 | 0.00 | 0.00 | 0.00 | 96 | 1012.8 |
| 20260506093041 | 53 | 201 | 5.0 | 14.0 | 0.00 | 0.00 | 0.00 | 96 | 1012.9 |
| 20260506091545 | 53 | 209 | 5.0 | 19.0 | 0.00 | 0.00 | 0.00 | 96 | 1013.0 |
| 20260506090039 | 53 | 223 | 5.0 | 14.0 | 0.00 | 0.00 | 0.00 | 96 | 1013.0 |
| 20260506084540 | 53 | 238 | 4.0 | 12.0 | 0.00 | 0.00 | 0.00 | 95 | 1013.1 |
| 20260506083042 | 53 | 181 | 7.0 | 16.0 | 0.00 | 0.00 | 0.00 | 95 | 1013.2 |
| 20260506081544 | 53 | 229 | 4.0 | 14.0 | 0.00 | 0.00 | 0.00 | 95 | 1013.2 |
| 20260506073055 | 53 | 182 | 6.0 | 16.0 | 0.00 | 0.00 | 0.00 | 95 | 1013.2 |
| 20260506071541 | 53 | 212 | 5.0 | 15.0 | 0.00 | 0.00 | 0.00 | 95 | 1013.2 |
| 20260506061545 | 53 | 218 | 6.0 | 14.0 | 0.00 | 0.00 | 0.00 | 94 | 1013.3 |
| 20260506044546 | 53 | 214 | 7.0 | 18.0 | 0.00 | 0.00 | 0.00 | 94 | 1013.6 |
| 20260506043040 | 53 | 230 | 5.0 | 13.0 | 0.00 | 0.00 | 0.00 | 93 | 1013.7 |
| 20260506041550 | 53 | 161 | 6.0 | 14.0 | 0.00 | 0.00 | 0.00 | 92 | 1013.7 |
| 20260506040040 | 53 | 239 | 6.0 | 15.0 | 0.00 | 0.00 | 0.00 | 92 | 1013.7 |
| 20260506034539 | 53 | 239 | 6.0 | 14.0 | 0.00 | 0.00 | 0.00 | 91 | 1013.8 |
| 20260506033038 | 53 | 217 | 8.0 | 17.0 | 0.00 | 0.00 | 0.00 | 91 | 1013.6 |
| 20260506031538 | 54 | 208 | 8.0 | 15.0 | 0.00 | 0.00 | 0.00 | 91 | 1013.4 |
| 20260506030042 | 53 | 221 | 9.0 | 17.0 | 0.00 | 0.00 | 0.00 | 90 | 1013.4 |
| 20260506024539 | 54 | 241 | 6.0 | 14.0 | 0.00 | 0.00 | 0.00 | 89 | 1013.4 |
| 20260506023040 | 54 | 193 | 8.0 | 18.0 | 0.00 | 0.00 | 0.00 | 88 | 1013.3 |
| 20260506021546 | 54 | 200 | 7.0 | 19.0 | 0.00 | 0.00 | 0.00 | 87 | 1013.3 |
| 20260506020037 | 54 | 225 | 5.0 | 17.0 | 0.00 | 0.00 | 0.00 | 86 | 1013.4 |
| 20260506014537 | 54 | 252 | 8.0 | 16.0 | 0.00 | 0.00 | 0.00 | 85 | 1013.1 |
| 20260506013047 | 54 | 213 | 8.0 | 23.0 | 0.00 | 0.00 | 0.00 | 85 | 1013.0 |
| 20260506011604 | 54 | 185 | 6.0 | 16.0 | 0.00 | 0.00 | 0.00 | 85 | 1012.9 |
| 20260506010039 | 53 | 203 | 6.0 | 15.0 | 0.00 | 0.00 | 0.00 | 86 | 1012.8 |
| 20260506004543 | 53 | 228 | 7.0 | 18.0 | 0.00 | 0.00 | 0.00 | 87 | 1012.7 |